SCP
2 2 2 1 1 0 0 0 0 0 0 0 0 0 0 0 0 0 0 0 0 0 0 0 0 0 0 0 0 0 0 0 0 0 0 1 1 1 1 0 0 0 0
2 2 2 2 1 1 0 0 0 0 0 0 0 0 0 0 0 0 0 0 0 0 0 0 0 0 0 0 0 0 0 0 0 0 0 0 0 1 1 0 0 0 0
2 2 2 2 1 1 1 0 0 0 0 0 0 0 0 0 0 0 0 0 0 0 0 0 0 0 0 0 0 0 0 0 0 0 0 0 0 0 0 0 0 0 0
2 2 2 2 1 1 1 1 1 0 0 0 0 0 0 0 0 0 0 0 0 0 0 0 0 0 0 0 0 0 0 0 0 0 0 0 0 0 0 0 0 0 0
2 2 2 2 1 1 1 1 1 1 0 0 0 0 0 0 0 0 0 0 0 0 0 0 0 0 0 0 0 0 0 0 0 0 0 0 0 0 0 0 0 0 0
2 2 2 2 2 1 1 1 1 1 1 0 0 0 0 0 0 0 0 0 0 0 0 0 0 0 0 0 0 0 0 0 0 0 0 0 0 0 0 0 0 0 0
3 2 2 2 2 1 1 1 1 1 1 1 0 0 0 0 0 0 0 0 0 0 0 0 0 0 0 0 0 0 0 0 0 0 0 0 0 0 0 0 0 0 0
3 3 2 2 2 2 1 1 1 1 1 1 1 0 0 0 0 0 0 0 0 0 0 0 0 0 0 0 0 0 0 0 0 0 0 0 0 0 0 0 0 0 0
4 4 3 2 2 2 1 1 1 1 1 1 1 0 0 0 0 0 0 0 0 0 0 0 0 0 0 0 0 0 0 0 0 0 0 0 0 0 0 0 0 0 0
5 4 3 3 2 2 1 1 1 1 1 1 1 0 0 0 0 0 0 0 0 0 0 0 0 0 0 0 0 0 0 0 0 0 0 0 1 1 0 0 0 0 0
5 5 4 3 3 2 2 1 1 1 1 1 1 0 0 0 0 0 0 0 0 0 0 0 0 0 0 0 0 0 0 0 0 1 1 1 1 1 1 1 1 0 0
6 5 4 3 3 3 2 2 1 1 1 1 1 1 0 0 0 0 0 0 0 0 0 0 0 0 0 0 0 0 0 0 0 1 1 1 1 1 1 1 1 0 0
10 8 5 5 4 4 3 3 2 2 1 1 1 1 1 1 1 1 0 0 0 0 0 0 0 0 0 0 0 0 0 0 0 0 1 1 1 1 1 1 1 0 0
14 11 9 8 7 6 5 3 2 2 2 1 1 1 1 1 1 1 1 0 0 0 0 1 0 0 0 0 0 0 0 0 1 0 0 1 1 1 1 1 1 1 0
14 13 12 11 9 8 6 4 3 2 2 2 2 2 2 2 1 1 1 1 1 1 1 1 1 1 1 1 1 1 1 1 1 1 1 0 1 1 1 1 1 1 1
12 12 12 10 9 8 6 4 3 2 2 2 2 2 2 2 2 2 2 1 1 1 1 1 1 1 1 1 1 1 1 1 1 1 1 0 1 1 1 1 1 1 1
11 11 10 8 7 6 5 3 3 2 2 2 2 3 2 2 2 2 1 1 1 1 1 1 1 1 1 1 1 1 1 1 1 1 1 1 1 1 1 1 1 1 1
10 10 9 7 5 5 4 3 3 2 2 2 2 3 2 2 2 2 1 1 1 1 1 1 1 1 1 1 1 1 1 1 0 0 1 1 0 0 0 1 1 1 0
10 10 9 7 5 4 3 3 3 3 3 3 2 3 2 2 2 2 1 1 1 1 1 1 1 1 1 0 0 1 1 0 0 0 0 1 1 0 0 0 1 1 0
11 11 10 8 6 4 3 3 3 3 3 3 3 3 3 2 2 2 1 1 1 1 1 1 1 1 0 0 0 0 0 0 0 0 0 0 1 1 1 0 0 0 0
13 12 11 9 7 5 3 3 3 3 3 3 3 3 3 2 2 2 2 1 1 1 1 1 0 0 0 0 0 0 0 0 0 0 0 0 1 1 1 0 0 0 0
13 11 9 7 7 5 4 3 3 3 3 3 3 3 3 2 2 2 2 2 1 1 1 1 0 0 0 0 0 0 0 0 0 0 0 0 1 1 1 0 0 0 0
10 8 6 5 6 5 4 3 2 2 2 2 3 3 3 2 2 2 2 2 1 1 1 1 0 0 0 0 0 0 0 0 0 0 0 0 1 1 0 0 0 0 0
7 6 4 4 4 4 4 3 3 2 2 2 3 4 3 3 2 2 2 2 1 1 1 1 0 0 0 0 0 0 0 0 0 0 0 0 0 0 0 0 0 0 0
5 4 4 3 3 3 3 3 3 3 2 2 3 4 4 3 2 2 2 2 1 1 1 1 1 0 0 0 0 0 0 0 0 0 0 0 0 0 0 0 0 0 0
4 4 3 3 3 3 3 3 4 4 3 3 3 3 4 3 3 2 2 2 2 1 1 1 1 0 0 0 0 0 0 0 0 0 0 0 0 0 0 0 1 0 0
Wind_Speed
19 18 18 17 15 15 15 14 14 14 14 13 13 13 13 13 13 13 13 13 13 13 13 13 13 14 14 14 15 15 15 15 16 16 17 16 15 14 13 14 15 13 16
22 19 18 17 16 15 15 15 14 14 14 13 13 12 12 12 12 12 12 13 13 13 13 13 14 14 14 14 14 14 13 13 14 15 16 15 14 13 11 13 15 11 15
22 19 18 17 16 15 15 15 14 14 14 13 13 12 12 12 12 12 12 13 13 13 13 13 13 13 13 13 12 12 11 11 12 13 13 10 11 13 14 16 16 15 14
22 18 17 18 16 16 15 15 15 14 14 13 13 12 12 12 12 12 13 13 13 13 13 13 13 13 12 12 11 9 9 9 8 8 5 8 9 13 14 15 15 14 14
20 17 18 19 17 16 16 15 15 14 13 13 12 12 12 12 12 12 12 13 13 13 13 13 12 12 11 10 9 7 6 5 4 4 8 9 8 12 13 13 14 13 13
20 18 18 18 17 17 16 15 15 14 13 13 13 12 12 12 12 12 12 12 12 12 12 12 11 11 10 9 7 4 3 1 1 6 8 9 8 11 13 13 13 13 12
20 19 18 18 18 17 16 15 15 14 14 13 13 12 12 12 12 12 12 12 12 12 12 11 10 10 9 7 4 2 1 2 2 7 8 9 8 11 12 12 12 12 12
20 19 17 18 18 17 16 15 15 14 14 13 12 12 12 12 12 12 12 11 11 11 11 10 9 8 7 5 2 0 2 5 3 11 10 9 10 11 12 12 11 11 11
20 19 16 16 15 16 16 15 15 14 13 13 12 12 12 12 12 11 11 11 10 10 9 8 8 7 6 4 1 2 3 4 1 7 12 8 11 12 11 11 10 10 10
19 19 16 16 15 13 13 15 15 14 14 13 13 13 12 12 12 12 11 10 10 9 8 7 6 6 4 3 2 3 4 4 0 7 8 10 13 12 11 10 10 10 10
17 17 17 17 15 14 13 14 14 14 13 13 11 13 12 8 9 8 11 10 9 8 7 6 6 5 5 5 5 4 4 1 4 6 8 13 13 12 11 10 10 10 9
16 16 15 17 15 14 12 11 9 10 10 8 8 9 6 5 6 9 11 10 9 8 7 6 6 6 5 4 5 6 3 2 5 7 8 15 13 12 11 10 9 9 8
14 14 14 14 12 11 9 9 6 6 7 7 8 7 5 4 6 7 5 6 5 7 5 5 5 4 3 1 2 3 1 1 4 6 9 14 13 12 11 10 9 8 8
12 12 11 13 9 7 8 7 7 6 6 5 6 6 5 3 3 4 3 4 4 3 2 2 2 2 2 1 1 1 2 3 6 6 7 13 12 11 11 10 9 8 8
9 10 11 10 9 7 6 5 6 6 6 6 6 4 5 3 3 4 2 1 1 2 2 0 2 2 1 1 1 2 3 4 7 7 6 11 12 10 10 10 9 9 8
10 10 10 10 9 8 5 2 3 5 4 6 5 5 4 4 3 3 3 1 1 2 2 1 2 2 0 1 2 3 3 3 5 6 7 8 11 10 10 9 9 8 8
11 9 10 10 10 8 7 5 4 4 5 5 5 5 4 4 4 3 3 2 2 2 2 1 2 1 1 2 2 2 2 3 4 5 6 5 6 8 9 9 8 8 8
10 10 9 10 10 9 7 4 3 4 4 4 5 5 4 5 5 3 3 2 2 2 2 1 1 1 1 1 2 2 2 2 3 4 4 5 5 6 7 9 8 8 8
10 10 9 9 10 9 7 5 4 3 4 4 4 5 5 5 5 3 3 2 2 1 1 1 2 1 1 1 2 2 2 2 2 3 4 5 5 6 5 8 9 8 8
10 10 10 9 9 8 7 5 3 4 3 3 4 4 6 4 5 3 4 3 2 2 2 3 3 2 1 0 1 3 1 2 2 2 3 3 4 6 7 7 6 6 8
10 11 11 11 10 8 6 6 5 5 4 3 3 6 6 5 5 2 3 3 1 2 2 3 2 2 1 1 1 2 2 2 2 3 1 2 3 4 5 6 5 4 4
11 11 11 11 11 10 7 6 5 5 4 4 3 5 5 5 5 4 3 3 2 2 2 1 1 0 2 2 1 1 2 1 1 3 3 2 3 3 4 6 5 4 4
12 12 11 11 11 10 8 6 5 4 3 4 4 4 4 5 5 3 4 2 3 3 3 2 2 2 1 2 2 0 0 1 2 2 3 3 3 2 2 3 5 5 5
12 12 10 11 11 10 9 8 9 7 6 6 5 4 5 4 4 4 4 3 2 1 4 3 3 1 1 2 1 1 0 1 1 2 2 2 3 3 2 2 4 4 4
11 11 11 11 10 10 10 10 9 7 6 5 5 6 5 4 4 4 4 4 2 1 3 1 3 1 1 2 1 1 1 1 1 2 3 3 3 3 3 3 3 3 4
10 11 11 11 10 10 11 10 10 9 8 8 8 7 6 4 4 5 5 4 3 2 3 2 2 2 1 2 2 2 1 1 2 1 2 3 3 3 4 3 3 3 4
Wind_Direction
127 130 132 130 130 130 130 128 126 123 119 115 109 104 100 97 96 96 94 94 92 91 91 90 89 87 86 85 85 86 87 90 93 95 95 94 93 93 97 102 99 94 97
126 130 132 131 132 131 130 128 127 124 122 119 115 110 106 103 102 100 98 97 95 93 93 92 91 90 89 89 90 92 96 100 103 105 102 95 89 89 90 89 93 100 100
125 131 133 133 133 132 131 130 128 126 125 123 120 117 113 110 107 103 101 99 97 96 95 94 93 92 93 94 96 100 105 110 116 120 115 101 93 89 90 94 98 101 100
128 137 135 135 135 134 133 132 132 131 129 126 124 121 116 112 110 106 102 100 99 98 97 96 95 95 95 96 99 106 114 118 125 132 115 103 99 95 97 98 101 102 101
131 132 132 138 137 137 135 135 133 133 132 129 126 122 118 114 110 108 104 102 101 100 98 97 97 97 97 99 102 107 117 131 144 130 94 91 92 104 103 103 104 103 103
131 130 136 139 138 138 138 137 135 134 133 130 127 124 121 117 114 111 108 105 104 102 100 99 99 98 99 101 105 108 108 126 186 111 109 108 105 109 108 107 106 105 105
134 132 139 141 140 140 140 139 138 137 135 131 128 125 122 118 115 114 111 109 106 104 102 102 102 102 101 103 106 110 125 272 223 112 103 103 108 112 111 109 108 108 108
134 134 139 142 142 142 142 142 141 139 137 134 131 128 124 121 119 116 115 113 110 107 105 105 105 104 102 104 108 7 316 308 101 112 110 109 118 115 113 113 112 112 111
136 135 144 146 145 145 146 146 144 143 141 138 134 131 129 127 124 122 119 118 115 112 111 111 111 112 114 118 146 266 293 309 334 120 117 117 121 119 117 117 118 116 114
139 142 151 150 149 151 150 149 147 146 145 142 140 139 136 136 135 133 130 124 122 120 119 121 124 130 140 158 198 257 290 308 293 113 114 123 126 125 123 122 122 119 118
145 148 156 152 155 157 154 150 151 150 150 148 149 151 151 156 150 151 126 131 132 132 135 143 152 162 174 194 217 243 267 231 98 103 110 127 130 129 128 126 127 123 122
152 156 158 154 160 162 155 148 157 160 157 169 159 165 180 166 146 131 134 142 147 151 160 177 185 194 210 204 206 224 243 173 126 113 121 131 132 133 132 130 130 129 127
158 159 157 151 158 159 141 156 161 159 162 180 159 172 178 147 136 132 149 152 166 173 185 178 200 214 197 194 193 206 190 93 105 107 128 134 135 138 137 135 134 135 135
158 153 150 144 150 144 145 161 160 155 168 165 160 179 154 148 137 138 146 167 173 169 172 185 192 143 123 131 95 56 80 93 107 110 136 140 139 141 143 143 144 142 143
152 147 143 144 140 139 141 168 165 151 164 154 155 172 147 143 132 122 119 122 147 130 157 207 76 70 56 117 74 70 59 81 111 120 134 147 145 148 151 152 154 156 156
157 151 146 146 140 140 144 169 147 138 148 143 148 157 154 133 123 123 130 134 108 88 63 39 92 94 23 73 74 63 53 71 102 122 137 150 155 158 161 163 166 168 168
158 155 149 151 146 148 156 178 156 144 151 144 144 143 147 134 128 134 139 166 116 113 118 121 113 135 197 144 119 113 91 71 102 118 136 148 157 166 169 171 174 176 177
154 152 159 162 155 156 159 172 156 152 149 146 143 143 147 134 143 155 145 130 141 151 152 135 191 174 118 114 130 129 116 119 134 143 147 152 158 163 172 174 173 178 184
157 157 162 161 160 159 159 167 165 140 146 143 141 142 150 149 150 158 125 118 179 149 151 171 111 59 79 105 146 142 161 155 158 168 149 155 154 154 161 171 174 179 188
160 159 161 162 160 157 157 164 161 146 149 142 139 144 152 155 157 159 131 145 202 137 95 59 81 72 36 213 218 140 164 148 179 143 163 155 160 169 162 161 171 186 191
161 163 164 166 162 161 164 168 167 165 165 156 153 154 159 156 156 164 128 149 202 110 121 149 137 156 214 191 130 144 175 172 145 131 172 149 160 154 152 160 171 172 181
164 165 165 166 165 171 170 165 167 163 170 168 162 149 156 150 156 168 135 168 142 119 124 123 100 260 216 176 204 184 170 157 164 176 162 174 159 162 168 170 159 163 176
167 170 172 170 171 175 167 160 161 155 162 160 152 152 159 160 171 155 150 162 156 170 155 180 192 232 269 184 204 272 212 162 160 166 181 160 141 148 174 156 169 171 175
171 171 168 170 173 171 168 170 169 172 173 170 159 158 162 167 169 161 158 145 180 159 142 196 185 230 252 254 194 168 188 99 125 151 198 162 167 171 175 178 168 171 163
171 169 168 170 173 173 177 175 175 179 172 161 154 155 166 167 173 177 163 157 175 170 149 135 127 245 260 273 276 195 187 170 241 182 176 177 187 179 175 178 173 173 165
169 169 167 168 172 174 179 178 182 178 168 162 160 164 170 166 180 182 167 160 179 173 141 142 148 204 301 343 345 329 185 193 230 215 175 185 188 183 173 171 176 175 179